| time (UTC) | temp F | wind direction | speed MPH | gust MPH | rain 1hr in | rain 24hr in | rain mn in | humidity % | barometer mb |
| 20260504013512 | 62 | 234 | 1.0 | 1.0 | 0.00 | 0.00 | 0.00 | 35 | 1002.2 |
| 20260504013009 | 62 | 226 | 1.0 | 1.0 | 0.00 | 0.00 | 0.00 | 36 | 1002.2 |
| 20260504012506 | 63 | 203 | 0.0 | 1.0 | 0.00 | 0.00 | 0.00 | 39 | 1002.3 |
| 20260504012004 | 64 | 225 | 0.0 | 1.0 | 0.00 | 0.00 | 0.00 | 34 | 1002.2 |
| 20260504011500 | 64 | 234 | 0.0 | 0.0 | 0.00 | 0.00 | 0.00 | 33 | 1002.1 |
| 20260504010956 | 65 | 234 | 1.0 | 1.0 | 0.00 | 0.00 | 0.00 | 32 | 1002.1 |
| 20260504010452 | 65 | 249 | 1.0 | 2.0 | 0.00 | 0.00 | 0.00 | 31 | 1002.3 |
| 20260504005948 | 66 | 239 | 1.0 | 1.0 | 0.00 | 0.00 | 0.00 | 30 | 1002.2 |
| 20260504005445 | 66 | 230 | 0.0 | 1.0 | 0.00 | 0.00 | 0.00 | 30 | 1002.3 |
| 20260504004943 | 67 | 257 | 1.0 | 2.0 | 0.00 | 0.00 | 0.00 | 29 | 1002.6 |
| 20260504004440 | 67 | 256 | 2.0 | 2.0 | 0.00 | 0.00 | 0.00 | 29 | 1002.2 |
| 20260504003937 | 67 | 249 | 1.0 | 2.0 | 0.00 | 0.00 | 0.00 | 29 | 1002.4 |
| 20260504003433 | 67 | 265 | 1.0 | 2.0 | 0.00 | 0.00 | 0.00 | 29 | 1002.4 |
| 20260504002930 | 67 | 250 | 1.0 | 1.0 | 0.00 | 0.00 | 0.00 | 28 | 1002.3 |
| 20260504002427 | 67 | 244 | 1.0 | 1.0 | 0.00 | 0.00 | 0.00 | 28 | 1002.4 |
| 20260504001924 | 67 | 237 | 1.0 | 1.0 | 0.00 | 0.00 | 0.00 | 28 | 1002.4 |
| 20260504001422 | 67 | 266 | 2.0 | 2.0 | 0.00 | 0.00 | 0.00 | 27 | 1002.4 |
| 20260504000918 | 68 | 282 | 2.0 | 2.0 | 0.00 | 0.00 | 0.00 | 28 | 1002.6 |
| 20260504000416 | 67 | 259 | 3.0 | 3.0 | 0.00 | 0.00 | 0.00 | 26 | 1002.6 |
| 20260503235913 | 68 | 281 | 4.0 | 5.0 | 0.00 | 0.00 | 0.00 | 26 | 1002.6 |
| 20260503235411 | 68 | 290 | 3.0 | 3.0 | 0.00 | 0.00 | 0.00 | 25 | 1002.6 |
| 20260503234908 | 68 | 304 | 5.0 | 6.0 | 0.00 | 0.00 | 0.00 | 25 | 1002.7 |
| 20260503234405 | 69 | 206 | 4.0 | 6.0 | 0.00 | 0.00 | 0.00 | 25 | 1002.6 |
| 20260503233903 | 68 | 231 | 3.0 | 5.0 | 0.00 | 0.00 | 0.00 | 27 | 1002.6 |
| 20260503233359 | 68 | 293 | 5.0 | 6.0 | 0.00 | 0.00 | 0.00 | 25 | 1002.7 |
| 20260503232855 | 69 | 298 | 5.0 | 6.0 | 0.00 | 0.00 | 0.00 | 28 | 1002.6 |
| 20260503232353 | 68 | 315 | 4.0 | 5.0 | 0.00 | 0.00 | 0.00 | 28 | 1002.9 |
| 20260503231851 | 68 | 279 | 3.0 | 3.0 | 0.00 | 0.00 | 0.00 | 27 | 1002.8 |
| 20260503231347 | 69 | 297 | 4.0 | 5.0 | 0.00 | 0.00 | 0.00 | 26 | 1002.9 |
| 20260503230844 | 69 | 288 | 4.0 | 5.0 | 0.00 | 0.00 | 0.00 | 26 | 1002.6 |
| 20260503230340 | 69 | 279 | 3.0 | 5.0 | 0.00 | 0.00 | 0.00 | 26 | 1002.8 |
| 20260503225839 | 69 | 294 | 4.0 | 5.0 | 0.00 | 0.00 | 0.00 | 26 | 1002.9 |
| 20260503225334 | 69 | 316 | 5.0 | 7.0 | 0.00 | 0.00 | 0.00 | 26 | 1002.7 |
| 20260503224831 | 68 | 335 | 6.0 | 8.0 | 0.00 | 0.00 | 0.00 | 26 | 1002.8 |
| 20260503224328 | 68 | 261 | 4.0 | 5.0 | 0.00 | 0.00 | 0.00 | 26 | 1003.0 |
| 20260503223826 | 69 | 274 | 4.0 | 5.0 | 0.00 | 0.00 | 0.00 | 26 | 1003.0 |
| 20260503223323 | 69 | 287 | 5.0 | 6.0 | 0.00 | 0.00 | 0.00 | 25 | 1003.1 |
| 20260503222819 | 69 | 296 | 6.0 | 7.0 | 0.00 | 0.00 | 0.00 | 26 | 1003.1 |
| 20260503222317 | 69 | 283 | 4.0 | 5.0 | 0.00 | 0.00 | 0.00 | 27 | 1002.8 |
| 20260503221815 | 68 | 289 | 5.0 | 6.0 | 0.00 | 0.00 | 0.00 | 27 | 1003.0 |
| 20260503221314 | 68 | 289 | 4.0 | 5.0 | 0.00 | 0.00 | 0.00 | 27 | 1003.1 |
| 20260503220809 | 68 | 291 | 3.0 | 3.0 | 0.00 | 0.00 | 0.00 | 27 | 1003.2 |
| 20260503220306 | 69 | 320 | 5.0 | 7.0 | 0.00 | 0.00 | 0.00 | 27 | 1003.3 |
| 20260503215803 | 69 | 274 | 3.0 | 3.0 | 0.00 | 0.00 | 0.00 | 26 | 1003.1 |
| 20260503215300 | 69 | 202 | 1.0 | 2.0 | 0.00 | 0.00 | 0.00 | 27 | 1003.5 |
| 20260503214758 | 69 | 300 | 5.0 | 6.0 | 0.00 | 0.00 | 0.00 | 25 | 1003.4 |
| 20260503214254 | 69 | 314 | 5.0 | 7.0 | 0.00 | 0.00 | 0.00 | 24 | 1003.5 |
| 20260503213752 | 68 | 298 | 4.0 | 5.0 | 0.00 | 0.00 | 0.00 | 25 | 1003.6 |
| 20260503213249 | 68 | 277 | 3.0 | 5.0 | 0.00 | 0.00 | 0.00 | 26 | 1003.6 |
| 20260503212746 | 68 | 316 | 4.0 | 6.0 | 0.00 | 0.00 | 0.00 | 25 | 1003.7 |
| 20260503212244 | 68 | 9 | 6.0 | 8.0 | 0.00 | 0.00 | 0.00 | 25 | 1003.8 |
| 20260503211741 | 68 | 336 | 5.0 | 6.0 | 0.00 | 0.00 | 0.00 | 26 | 1003.6 |
| 20260503211237 | 69 | 319 | 5.0 | 7.0 | 0.00 | 0.00 | 0.00 | 24 | 1003.8 |
| 20260503210733 | 69 | 341 | 3.0 | 3.0 | 0.00 | 0.00 | 0.00 | 26 | 1003.9 |
| 20260503210231 | 68 | 349 | 7.0 | 9.0 | 0.00 | 0.00 | 0.00 | 24 | 1003.9 |
| 20260503205726 | 69 | 320 | 4.0 | 5.0 | 0.00 | 0.00 | 0.00 | 25 | 1004.1 |
| 20260503205222 | 68 | 322 | 5.0 | 6.0 | 0.00 | 0.00 | 0.00 | 24 | 1004.2 |
| 20260503204719 | 68 | 355 | 8.0 | 11.0 | 0.00 | 0.00 | 0.00 | 25 | 1004.4 |
| 20260503204217 | 68 | 24 | 3.0 | 3.0 | 0.00 | 0.00 | 0.00 | 27 | 1004.0 |
| 20260503203713 | 68 | 1 | 9.0 | 10.0 | 0.00 | 0.00 | 0.00 | 25 | 1004.3 |
| 20260503203211 | 68 | 39 | 7.0 | 8.0 | 0.00 | 0.00 | 0.00 | 26 | 1004.2 |
| 20260503202708 | 68 | 289 | 5.0 | 6.0 | 0.00 | 0.00 | 0.00 | 27 | 1004.2 |
| 20260503202206 | 68 | 336 | 5.0 | 8.0 | 0.00 | 0.00 | 0.00 | 26 | 1004.4 |
| 20260503201704 | 68 | 246 | 2.0 | 3.0 | 0.00 | 0.00 | 0.00 | 28 | 1004.3 |
| 20260503201201 | 68 | 289 | 3.0 | 3.0 | 0.00 | 0.00 | 0.00 | 26 | 1004.4 |
| 20260503200657 | 68 | 293 | 6.0 | 7.0 | 0.00 | 0.00 | 0.00 | 28 | 1004.4 |
| 20260503200154 | 68 | 17 | 7.0 | 8.0 | 0.00 | 0.00 | 0.00 | 24 | 1004.4 |
| 20260503195650 | 68 | 19 | 8.0 | 9.0 | 0.00 | 0.00 | 0.00 | 25 | 1004.5 |
| 20260503195147 | 67 | 301 | 5.0 | 6.0 | 0.00 | 0.00 | 0.00 | 29 | 1004.6 |
| 20260503194644 | 67 | 28 | 3.0 | 5.0 | 0.00 | 0.00 | 0.00 | 29 | 1004.7 |
| 20260503194140 | 68 | 44 | 4.0 | 5.0 | 0.00 | 0.00 | 0.00 | 28 | 1004.6 |
| 20260503193637 | 67 | 37 | 8.0 | 9.0 | 0.00 | 0.00 | 0.00 | 27 | 1004.5 |
| 20260503193132 | 66 | 348 | 3.0 | 5.0 | 0.00 | 0.00 | 0.00 | 33 | 1004.6 |
| 20260503192628 | 67 | 347 | 5.0 | 6.0 | 0.00 | 0.00 | 0.00 | 31 | 1004.7 |
| 20260503192124 | 67 | 25 | 7.0 | 11.0 | 0.00 | 0.00 | 0.00 | 32 | 1004.8 |
| 20260503191621 | 67 | 38 | 6.0 | 8.0 | 0.00 | 0.00 | 0.00 | 32 | 1004.8 |
| 20260503191118 | 68 | 4 | 9.0 | 11.0 | 0.00 | 0.00 | 0.00 | 31 | 1005.0 |
| 20260503190615 | 66 | 19 | 8.0 | 13.0 | 0.00 | 0.00 | 0.00 | 33 | 1004.9 |
| 20260503190112 | 67 | 27 | 7.0 | 9.0 | 0.00 | 0.00 | 0.00 | 30 | 1005.0 |
| 20260503185609 | 66 | 5 | 6.0 | 8.0 | 0.00 | 0.00 | 0.00 | 31 | 1004.9 |
| 20260503185109 | 66 | 310 | 6.0 | 7.0 | 0.00 | 0.00 | 0.00 | 31 | 1005.1 |
| 20260503184604 | 67 | 28 | 7.0 | 7.0 | 0.00 | 0.00 | 0.00 | 30 | 1005.1 |
| 20260503184101 | 67 | 340 | 6.0 | 7.0 | 0.00 | 0.00 | 0.00 | 30 | 1005.2 |
| 20260503183557 | 66 | 44 | 7.0 | 9.0 | 0.00 | 0.00 | 0.00 | 31 | 1005.2 |
| 20260503183055 | 67 | 16 | 5.0 | 8.0 | 0.00 | 0.00 | 0.00 | 33 | 1005.1 |
| 20260503182553 | 67 | 13 | 12.0 | 14.0 | 0.00 | 0.00 | 0.00 | 30 | 1005.2 |
| 20260503182051 | 67 | 319 | 4.0 | 5.0 | 0.00 | 0.00 | 0.00 | 32 | 1005.2 |
| 20260503181547 | 66 | 337 | 3.0 | 3.0 | 0.00 | 0.00 | 0.00 | 34 | 1005.1 |
| 20260503181044 | 66 | 301 | 6.0 | 7.0 | 0.00 | 0.00 | 0.00 | 31 | 1005.4 |
| 20260503180541 | 66 | 20 | 7.0 | 9.0 | 0.00 | 0.00 | 0.00 | 31 | 1005.3 |
| 20260503180038 | 66 | 2 | 7.0 | 7.0 | 0.00 | 0.00 | 0.00 | 31 | 1005.6 |
| 20260503175536 | 66 | 9 | 5.0 | 6.0 | 0.00 | 0.00 | 0.00 | 31 | 1005.5 |
| 20260503175033 | 66 | 321 | 7.0 | 9.0 | 0.00 | 0.00 | 0.00 | 31 | 1005.4 |
| 20260503174530 | 65 | 282 | 5.0 | 6.0 | 0.00 | 0.00 | 0.00 | 31 | 1005.3 |
| 20260503174026 | 65 | 327 | 5.0 | 6.0 | 0.00 | 0.00 | 0.00 | 34 | 1005.6 |
| 20260503173521 | 65 | 356 | 5.0 | 7.0 | 0.00 | 0.00 | 0.00 | 35 | 1005.5 |
| 20260503173018 | 65 | 6 | 5.0 | 6.0 | 0.00 | 0.00 | 0.00 | 37 | 1005.5 |
| 20260503172516 | 65 | 315 | 7.0 | 9.0 | 0.00 | 0.00 | 0.00 | 37 | 1005.5 |
| 20260503172012 | 66 | 329 | 8.0 | 10.0 | 0.00 | 0.00 | 0.00 | 36 | 1005.5 |
| 20260503171509 | 65 | 37 | 5.0 | 8.0 | 0.00 | 0.00 | 0.00 | 40 | 1005.8 |
| 20260503171006 | 65 | 5 | 5.0 | 7.0 | 0.00 | 0.00 | 0.00 | 39 | 1005.7 |
| 20260503170503 | 65 | 350 | 9.0 | 10.0 | 0.00 | 0.00 | 0.00 | 38 | 1005.7 |
| 20260503150855 | 62 | 339 | 4.0 | 5.0 | 0.00 | 0.00 | 0.00 | 48 | 1005.2 |
| 20260503150351 | 61 | 347 | 7.0 | 9.0 | 0.00 | 0.00 | 0.00 | 48 | 1005.3 |
| 20260503140315 | 58 | 27 | 4.0 | 5.0 | 0.00 | 0.00 | 0.00 | 51 | 1005.3 |
| 20260503131245 | 55 | 333 | 9.0 | 10.0 | 0.00 | 0.00 | 0.00 | 57 | 1004.6 |
| 20260503130742 | 54 | 353 | 10.0 | 11.0 | 0.00 | 0.00 | 0.00 | 58 | 1004.9 |
| 20260503130240 | 54 | 28 | 5.0 | 7.0 | 0.00 | 0.00 | 0.00 | 59 | 1004.6 |
| 20260503120206 | 50 | 256 | 1.0 | 2.0 | 0.00 | 0.00 | 0.00 | 60 | 1003.7 |
| 20260503110633 | 50 | 223 | 0.0 | 1.0 | 0.00 | 0.00 | 0.00 | 59 | 1003.0 |
| 20260503110130 | 50 | 255 | 1.0 | 1.0 | 0.00 | 0.00 | 0.00 | 58 | 1003.0 |
| 20260503081446 | 57 | 225 | 2.0 | 2.0 | 0.00 | 0.00 | 0.00 | 48 | 1003.4 |
| 20260503080943 | 57 | 221 | 0.0 | 0.0 | 0.00 | 0.00 | 0.00 | 50 | 1003.5 |
| 20260503080439 | 57 | 224 | 1.0 | 1.0 | 0.00 | 0.00 | 0.00 | 50 | 1003.4 |
| 20260503072916 | 58 | 209 | 2.0 | 2.0 | 0.00 | 0.00 | 0.00 | 51 | 1003.7 |
| 20260503072413 | 58 | 208 | 1.0 | 2.0 | 0.00 | 0.00 | 0.00 | 51 | 1003.8 |
| 20260503071910 | 58 | 213 | 2.0 | 2.0 | 0.00 | 0.00 | 0.00 | 51 | 1003.8 |
| 20260503071407 | 58 | 220 | 1.0 | 2.0 | 0.00 | 0.00 | 0.00 | 51 | 1003.8 |
| 20260503070903 | 58 | 208 | 0.0 | 1.0 | 0.00 | 0.00 | 0.00 | 49 | 1004.0 |
| 20260503070400 | 58 | 237 | 2.0 | 2.0 | 0.00 | 0.00 | 0.00 | 50 | 1003.8 |
| 20260503060326 | 57 | 212 | 2.0 | 2.0 | 0.00 | 0.00 | 0.00 | 57 | 1004.6 |
| 20260503054814 | 57 | 202 | 3.0 | 3.0 | 0.00 | 0.00 | 0.00 | 54 | 1005.2 |
| 20260503054310 | 57 | 196 | 3.0 | 5.0 | 0.00 | 0.00 | 0.00 | 53 | 1005.2 |
| 20260503053808 | 57 | 216 | 2.0 | 2.0 | 0.00 | 0.00 | 0.00 | 51 | 1005.8 |
| 20260503053306 | 57 | 222 | 1.0 | 1.0 | 0.00 | 0.00 | 0.00 | 50 | 1005.9 |
| 20260503052802 | 57 | 221 | 1.0 | 1.0 | 0.00 | 0.00 | 0.00 | 50 | 1005.7 |
| 20260503052300 | 57 | 202 | 1.0 | 1.0 | 0.00 | 0.00 | 0.00 | 50 | 1005.5 |
| 20260503051755 | 57 | 214 | 2.0 | 3.0 | 0.00 | 0.00 | 0.00 | 49 | 1005.7 |
| 20260503051252 | 57 | 195 | 1.0 | 2.0 | 0.00 | 0.00 | 0.00 | 49 | 1005.5 |
| 20260503050748 | 57 | 214 | 1.0 | 2.0 | 0.00 | 0.00 | 0.00 | 49 | 1005.6 |
| 20260503050245 | 57 | 216 | 1.0 | 2.0 | 0.00 | 0.00 | 0.00 | 48 | 1005.6 |
| 20260503045742 | 57 | 170 | 2.0 | 2.0 | 0.00 | 0.00 | 0.00 | 48 | 1005.7 |
| 20260503045240 | 57 | 225 | 1.0 | 1.0 | 0.00 | 0.00 | 0.00 | 48 | 1005.9 |
| 20260503044736 | 57 | 217 | 1.0 | 1.0 | 0.00 | 0.00 | 0.00 | 48 | 1005.5 |
| 20260503044233 | 57 | 198 | 1.0 | 2.0 | 0.00 | 0.00 | 0.00 | 47 | 1005.5 |
| 20260503043731 | 57 | 216 | 3.0 | 3.0 | 0.00 | 0.00 | 0.00 | 48 | 1005.8 |
| 20260503043227 | 57 | 207 | 2.0 | 2.0 | 0.00 | 0.00 | 0.00 | 48 | 1005.8 |
| 20260503042723 | 57 | 211 | 1.0 | 1.0 | 0.00 | 0.00 | 0.00 | 48 | 1005.8 |
| 20260503042220 | 57 | 198 | 1.0 | 1.0 | 0.00 | 0.00 | 0.00 | 48 | 1005.7 |
| 20260503041716 | 57 | 208 | 2.0 | 2.0 | 0.00 | 0.00 | 0.00 | 48 | 1005.8 |
| 20260503041214 | 58 | 202 | 0.0 | 1.0 | 0.00 | 0.00 | 0.00 | 47 | 1006.0 |
| 20260503040711 | 58 | 206 | 0.0 | 0.0 | 0.00 | 0.00 | 0.00 | 48 | 1005.9 |
| 20260503040209 | 58 | 206 | 3.0 | 3.0 | 0.00 | 0.00 | 0.00 | 47 | 1006.2 |
| 20260503035705 | 58 | 208 | 1.0 | 2.0 | 0.00 | 0.00 | 0.00 | 48 | 1006.3 |
| 20260503035203 | 58 | 194 | 1.0 | 1.0 | 0.00 | 0.00 | 0.00 | 47 | 1006.3 |
| 20260503034701 | 58 | 191 | 1.0 | 2.0 | 0.00 | 0.00 | 0.00 | 46 | 1006.5 |
| 20260503034157 | 58 | 204 | 0.0 | 0.0 | 0.00 | 0.00 | 0.00 | 46 | 1006.6 |
| 20260503033654 | 58 | 201 | 1.0 | 1.0 | 0.00 | 0.00 | 0.00 | 46 | 1006.5 |
| 20260503033152 | 59 | 205 | 0.0 | 0.0 | 0.00 | 0.00 | 0.00 | 47 | 1006.6 |
| 20260503032650 | 59 | 209 | 0.0 | 0.0 | 0.00 | 0.00 | 0.00 | 46 | 1007.0 |
| 20260503032149 | 59 | 189 | 1.0 | 1.0 | 0.00 | 0.00 | 0.00 | 45 | 1006.8 |
| 20260503031645 | 59 | 202 | 0.0 | 1.0 | 0.00 | 0.00 | 0.00 | 45 | 1006.8 |
| 20260503031143 | 59 | 188 | 2.0 | 2.0 | 0.00 | 0.00 | 0.00 | 45 | 1006.9 |
| 20260503030638 | 59 | 203 | 1.0 | 1.0 | 0.00 | 0.00 | 0.00 | 45 | 1006.9 |
| 20260503030136 | 59 | 208 | 1.0 | 1.0 | 0.00 | 0.00 | 0.00 | 46 | 1007.2 |
| 20260503025632 | 59 | 202 | 1.0 | 1.0 | 0.00 | 0.00 | 0.00 | 47 | 1007.2 |
| 20260503025131 | 59 | 199 | 1.0 | 2.0 | 0.00 | 0.00 | 0.00 | 46 | 1007.3 |
| 20260503024627 | 59 | 211 | 1.0 | 2.0 | 0.00 | 0.00 | 0.00 | 46 | 1007.3 |
| 20260503024124 | 58 | 195 | 2.0 | 3.0 | 0.00 | 0.00 | 0.00 | 49 | 1007.5 |
| 20260503023621 | 58 | 202 | 0.0 | 0.0 | 0.00 | 0.00 | 0.00 | 51 | 1007.4 |
| 20260503023118 | 58 | 202 | 1.0 | 1.0 | 0.00 | 0.00 | 0.00 | 51 | 1007.8 |
| 20260503022614 | 59 | 197 | 1.0 | 1.0 | 0.00 | 0.00 | 0.00 | 49 | 1007.8 |
| 20260503022108 | 59 | 196 | 0.0 | 0.0 | 0.00 | 0.00 | 0.00 | 48 | 1007.9 |
| 20260503021606 | 59 | 203 | 0.0 | 1.0 | 0.00 | 0.00 | 0.00 | 47 | 1007.8 |
| 20260503021102 | 59 | 194 | 1.0 | 1.0 | 0.00 | 0.00 | 0.00 | 46 | 1008.1 |
| 20260503020559 | 59 | 207 | 0.0 | 0.0 | 0.00 | 0.00 | 0.00 | 46 | 1008.0 |
| 20260503020056 | 60 | 210 | 0.0 | 0.0 | 0.00 | 0.00 | 0.00 | 45 | 1008.1 |
| 20260503015553 | 60 | 208 | 0.0 | 0.0 | 0.00 | 0.00 | 0.00 | 45 | 1008.1 |
| 20260503015051 | 60 | 199 | 1.0 | 1.0 | 0.00 | 0.00 | 0.00 | 45 | 1007.9 |
| 20260503014546 | 60 | 211 | 1.0 | 1.0 | 0.00 | 0.00 | 0.00 | 45 | 1008.4 |
| 20260503014044 | 61 | 214 | 1.0 | 1.0 | 0.00 | 0.00 | 0.00 | 44 | 1008.3 |